Flag for Germany Weather past 2 weeks in Würzburg, Bavaria, Germany

Now
59 °F

Passing clouds.


Feels Like: 59 °F
Forecast: 52 / 64 °F
Wind: 1 mph from South

Location: Wuerzburg

Current Time: Sep 20, 2014 at 6:11:22 AM

Latest Report: Sep 20, 2014 at 6:00 AM


Visibility: 5 mi

Pressure: 29.96 "Hg

Humidity: 98%

Dew point: 59 °F

Location of WürzburgLocation

Historic Weather in Würzburg — Graph

°F

Würzburg temperature yesterday

Maximum temperature yesterday: 73 °F (at 4:00 PM)
Minimum temperature yesterday: 58 °F (at 8:00 AM)
Average temperature yesterday: 65 °F

Past Weeks' High & Low Weather Summary

 TemperatureHumidityPressure
High75 °F (Sep 6, 4:00 PM)100% (Sep 6, 9:00 AM)30.16 "Hg (Sep 6, 9:00 AM)
Low48 °F (Sep 11, 6:00 AM)52% (Sep 8, 5:00 PM)29.86 "Hg (Sep 6, 4:00 PM)
Average62 °F85%30.00 "Hg
* Reported Sep 5 5:00 AM — Sep 20 5:00 AM, Würzburg, Weather by CustomWeather, © 2014

Note: Actual official high and low records may vary slightly from our data, if they occured in-between our weather recording intervals... More about our weather records

Advertising

Würzburg weather history for previous 24 hours

 ConditionsComfort  
Time TempWeatherWind HumidityBarometerVisibility
5:00 AM
Sep 20
60 °FPassing clouds.2 mph98%29.96 "Hg6 mi
4:00 AM61 °FPassing clouds.1 mph98%29.96 "Hg7 mi
3:00 AM62 °FPassing clouds.1 mph96%29.96 "Hg7 mi
2:00 AM62 °FOvercast.2 mph96%29.96 "Hg9 mi
1:00 AM62 °FOvercast.2 mph96%29.96 "Hg9 mi
12:00 AM62 °FOvercast.2 mph96%29.96 "Hg12 mi
11:00 PM
Sep 19
63 °FOvercast.2 mph96%29.95 "Hg16 mi
10:00 PM65 °FOvercast.1 mph89%29.94 "Hg25 mi
9:00 PM65 °FOvercast.1 mph90%29.94 "Hg25 mi
8:00 PM68 °FOvercast.No wind82%29.92 "Hg25 mi
7:00 PM71 °FOvercast.1 mph70%29.91 "Hg28 mi
6:00 PM72 °FOvercast.2 mph68%29.90 "Hg28 mi
5:00 PM73 °FPartly sunny.3 mph66%29.90 "Hg28 mi
4:00 PM73 °FOvercast.5 mph66%29.90 "Hg28 mi
3:00 PM71 °FOvercast.5 mph70%29.92 "Hg28 mi
2:00 PM69 °FOvercast.5 mph78%29.93 "Hg28 mi
1:00 PM67 °FOvercast.6 mph79%29.93 "Hg28 mi
12:00 PM67 °FOvercast.2 mph80%29.92 "Hg22 mi
11:00 AM66 °FOvercast.2 mph86%29.93 "Hg9 mi
10:00 AM62 °FOvercast.2 mph98%29.93 "Hg6 mi
9:00 AM61 °FFog.1 mph99%29.92 "Hg1 mi
8:00 AM58 °FFog.1 mph99%29.93 "Hg0 mi
7:00 AM58 °FFog.1 mph99%29.92 "Hg1 mi
6:00 AM59 °FFog.1 mph99%29.90 "Hg3 mi
Weather by CustomWeather, © 2014

See weather overviewHow to use our weather pages